Погода в Синьяне

Китай     32°07′04″N   114°05′13″E
темп.,
°C
ветер,
м/с
пор.,
м/с
влажн.,
%
обл.,
%
осадки,
мм/ч
давл.,
гПа
погр.,
м
17 мая, пн
пн1723:00+12с3794100 0.4 1016432
02:00+10ссз22923 0.4 101630
05:00+10сз1191100 0.0 101512
08:00+14ссв127791 0.0 1016311
11:00+17ссв226774 0.0 1016760
14:00+20с2362100 0.0 10151390
17:00+19ссв336897 0.0 1013953
20:00+16вюв117554 0.0 101411
18 мая, вт
вт1823:00+15юз228119 0.0 101411
02:00+14юз2286100 0.0 101328
05:00+14юз2287100 0.0 101218
08:00+18ююз2277100 0.0 1013251
11:00+21юз2267100 0.0 1013754
14:00+22юз2261100 0.0 1011890
17:00+22ююз3267100 0.0 1010882
20:00+16ююз228574 0.0 101124
19 мая, ср
ср1923:00+16юз3487100 0.0 101157
02:00+16ююз2291100 0.0 101040
05:00+16юз2283100 0.0 100933
08:00+17ююз2380100 0.0 1009131
11:00+18юз1279100 0.0 1009168
14:00+17ю2284100 0.0 100863
17:00+17сз1185100 0.0 100813
20:00+16зюз1184100 0.0 100811
20 мая, чт
чт2023:00+16юз1181100 0.0 100812
02:00+15юз117899 0.0 100611
05:00+15ююз2280100 0.0 100723
08:00+17юз2383100 0.0 1008133
11:00+23юз2354100 0.0 1007772
14:00+26юз234991 0.0 10061087
17:00+25юз3562100 0.0 1005656
20:00+20ююз2274100 0.0 100524
21 мая, пт
пт2123:00+19юз228335 0.0 100724
02:00+18ю338676 0.0 100527
05:00+17ююз35912 0.0 100582
08:00+22ююз47785 0.0 1005336
11:00+26ююз4561100 0.0 1007836
14:00+28ю3452100 0.0 10041208
17:00+27ююв2465100 0.0 1004196
20:00+23ю2275100 0.0 100521